Regional Weather Roundup
Issued by NWS

Home | Current Version | Previous Version | Text Only | Print | Product List | Glossary On
Versions: 1 2 3 4 5 6 7 8 9 10 11 12 13 14 15 16 17 18 19 20 21 22 23 24 25 26 27 28 29 30 31 32 33 34 35 36 37 38 39 40 41 42 43 44 45 46 47 48 49 50
000
ASUS42 KFFC 121803
RWRGA
WEATHER ROUNDUP FOR GEORGIA
NATIONAL WEATHER SERVICE PEACHTREE CITY GA
100 PM EST FRI FEB 12 2016

NOTE: "FAIR" INDICATES FEW OR NO CLOUDS BELOW 12,000 FEET WITH NO
SIGNIFICANT WEATHER AND/OR OBSTRUCTIONS TO VISIBILITY.

* = USE WITH CAUTION. THE STATIONS MARKED WITH AN ASTERISK MAY NOT
REPORT WEATHER SUCH AS PRECIPITATION, FOG, OR THUNDER AND ARE NOT
QUALITY CONTROLLED BY NWS.

THE REMARK "TC" DENOTES TEMPERATURE READING IN DEGREES CELSIUS.

GAZ001>058-121900-
NORTH GEORGIA

CITY           SKY/WX    TMP DP  RH WIND       PRES   REMARKS
ATLANTA        MOSUNNY   56  32  40 VRB5      30.08F
6HR MIN TEMP:  40; 6HR MAX TEMP:  56;

ATHENS         SUNNY     49  27  42 CALM      30.08F
6HR MIN TEMP:  35; 6HR MAX TEMP:  49;

CHAMBLEE       SUNNY     54  30  40 SW7       30.08F
6HR MIN TEMP:  39; 6HR MAX TEMP:  55;

PEACHTREE CITY SUNNY     59  36  42 W10       30.09F
6HR MIN TEMP:  33; 6HR MAX TEMP:  59;

ROME           SUNNY     56  29  35 VRB3      30.09F
6HR MIN TEMP:  34; 6HR MAX TEMP:  56;

WEST ATLANTA   SUNNY     55  29  36 VRB6      30.08F
6HR MIN TEMP:  35; 6HR MAX TEMP:  55;

GAINESVILLE    SUNNY     51  24  34 VRB3      30.08F
6HR MIN TEMP:  36; 6HR MAX TEMP:  51;

CARTERSVILLE   SUNNY     54  30  40 CALM      30.10F
6HR MIN TEMP:  31; 6HR MAX TEMP:  54;



CITY           SKY/WX    TMP DP  RH WIND       PRES   REMARKS
DALTON*        SUNNY     50  32  50 CALM      30.12F
LAWRENCEVILLE* SUNNY     52  25  35 SW7       30.08F
KENNESAW*      SUNNY     55  28  35 CALM      30.10F
BLAIRSVILLE*     N/A     44  28  54 N5        30.08F
$$

GAZ059>098-102>109-121900-
CENTRAL GEORGIA

CITY           SKY/WX    TMP DP  RH WIND       PRES   REMARKS
AUGUSTA-BUSH   CLOUDY    50  36  58 N3        30.08F
6HR MIN TEMP:  37; 6HR MAX TEMP:  51;

AUGUSTA-DANIEL CLOUDY    48  34  58 CALM      30.08F
6HR MIN TEMP:  40; 6HR MAX TEMP:  48;

COLUMBUS       SUNNY     62  46  55 W14       30.11F
6HR MIN TEMP:  43; 6HR MAX TEMP:  63;

MACON          SUNNY     58  45  62 W10       30.09F
6HR MIN TEMP:  37; 6HR MAX TEMP:  58;



CITY           SKY/WX    TMP DP  RH WIND       PRES   REMARKS
LAGRANGE*      SUNNY     64  45  49 NW6       30.10F
SYLVANIA*      CLOUDY    49  49 100 NW5       30.09F FOG
MILLEDGEVILLE* SUNNY     54  34  47 N6        30.09F
$$

GAZ099>101-110>166-121900-
SOUTH GEORGIA

CITY           SKY/WX    TMP DP  RH WIND       PRES   REMARKS
SAVANNAH       CLOUDY    66  54  65 W12       30.06F
6HR MIN TEMP:  47; 6HR MAX TEMP:  66;

VALDOSTA       MOSUNNY   74  53  48 VRB5      30.13F
6HR MIN TEMP:  52; 6HR MAX TEMP:  74;

ALMA           CLOUDY    65  54  67 SW16      30.10F
6HR MIN TEMP:  56; 6HR MAX TEMP:  65;

ST SIMONS      SUNNY     71  54  54 W16       30.07F
6HR MIN TEMP:  53; 6HR MAX TEMP:  71;

ALBANY         CLOUDY    67  53  61 W13G20    30.15F
BRUNSWICK      SUNNY     72  54  53 W20G26    30.08F


CITY           SKY/WX    TMP DP  RH WIND       PRES   REMARKS
BAINBRIDGE*    MOSUNNY   73  54  49 SW21      30.15F
MOULTRIE*      SUNNY     70  54  56 W16G23    30.14F
VIDALIA*       CLOUDY    61  52  72 W8        30.09F
WAYCROSS*      MOSUNNY   74  60  61 W15       30.09F
DOUGLAS*       CLOUDY    68  54  60 W15       30.12F
$$



USA.gov is the U.S. government's official web portal to all federal, state and local government web resources and services.